When you browse on this site, cookies collect data to enhance your experience and personalize the content and advertising you see.
Visit our Privacy Policy to learn more. By continuing to use the site, you agree to this use of cookies and data.
  • Em Portugal
  • Lista de países
  • Para 7 dias
  • Temperatura da água
  • Mapas de satélite
  • Mapa do tempo
  • Widgets de tempo
  • user-avatar
    Iniciar Sessão

    Previsão horária em Canberra

    Hoje, 18 Julho, Quinta-feira

    Tempo Temperatura Precipitação Vento Pressão Humidade
    00:00 +5°C° 0 mm 5 m/s 706 mmHg 88%
    01:00 +5°C° 0 mm 5 m/s 706 mmHg 88%
    02:00 +5°C° 0 mm 5 m/s 706 mmHg 89%
    03:00 +4°C° 0 mm 4 m/s 706 mmHg 90%
    04:00 +4°C° 0 mm 4 m/s 706 mmHg 92%
    05:00 +3°C° 0 mm 4 m/s 707 mmHg 92%
    06:00 +3°C° 0 mm 3 m/s 707 mmHg 93%
    07:00 +2°C° 0 mm 3 m/s 708 mmHg 93%
    08:00 +4°C° 0 mm 3 m/s 708 mmHg 84%
    09:00 +5°C° 0 mm 3 m/s 708 mmHg 75%
    10:00 +9°C° 0 mm 2 m/s 709 mmHg 65%
    11:00 +10°C° 0 mm 3 m/s 709 mmHg 60%
    12:00 +11°C° 0 mm 3 m/s 708 mmHg 56%
    13:00 +12°C° 0 mm 3 m/s 708 mmHg 51%
    14:00 +11°C° 0 mm 3 m/s 708 mmHg 56%
    15:00 +10°C° 0 mm 4 m/s 708 mmHg 61%
    16:00 +8°C° 0 mm 4 m/s 708 mmHg 68%
    17:00 +6°C° 0 mm 4 m/s 709 mmHg 76%
    18:00 +4°C° 0 mm 3 m/s 709 mmHg 84%
    19:00 +2°C° 0 mm 3 m/s 709 mmHg 92%
    20:00 +2°C° 0 mm 3 m/s 709 mmHg 93%
    21:00 +2°C° 0 mm 2 m/s 709 mmHg 94%
    22:00 +2°C° 0 mm 2 m/s 709 mmHg 95%
    23:00 +1°C° 0 mm 3 m/s 709 mmHg 94%

    Amanhã, 19 Julho, Sexta-feira

    Tempo Temperatura Precipitação Vento Pressão Humidade
    00:00 +1°C° 0 mm 3 m/s 709 mmHg 93%
    01:00 +1°C° 0 mm 3 m/s 709 mmHg 92%
    02:00 +1°C° 0 mm 3 m/s 709 mmHg 93%
    03:00 +1°C° 0 mm 3 m/s 709 mmHg 94%
    04:00 +1°C° 0 mm 3 m/s 709 mmHg 96%
    05:00 +1°C° 0 mm 3 m/s 710 mmHg 96%
    06:00 +2°C° 0 mm 2 m/s 710 mmHg 97%
    07:00 +2°C° 0 mm 2 m/s 710 mmHg 98%
    08:00 +3°C° 0 mm 2 m/s 711 mmHg 91%
    09:00 +4°C° 0 mm 3 m/s 711 mmHg 85%
    10:00 +7°C° 0 mm 3 m/s 711 mmHg 78%
    11:00 +9°C° 0 mm 3 m/s 711 mmHg 72%
    12:00 +10°C° 0 mm 3 m/s 711 mmHg 66%
    13:00 +12°C° 0 mm 3 m/s 711 mmHg 60%
    14:00 +12°C° 0 mm 3 m/s 711 mmHg 63%
    15:00 +11°C° 0 mm 3 m/s 711 mmHg 65%
    16:00 +11°C° 0 mm 3 m/s 711 mmHg 68%
    17:00 +9°C° 0 mm 2 m/s 712 mmHg 77%
    18:00 +7°C° 0 mm 2 m/s 712 mmHg 85%
    19:00 +5°C° 0 mm 1 m/s 712 mmHg 94%
    20:00 +5°C° 0 mm 1 m/s 712 mmHg 94%
    21:00 +4°C° 0 mm 1 m/s 713 mmHg 95%
    22:00 +3°C° 0 mm 1 m/s 713 mmHg 95%
    23:00 +3°C° 0 mm 1 m/s 713 mmHg 95%

    Depois de amanhã, 20 Julho, Sábado

    Tempo Temperatura Precipitação Vento Pressão Humidade
    00:00 +2°C° 0 mm 1 m/s 713 mmHg 94%
    01:00 +1°C° 0 mm 0 m/s 712 mmHg 94%
    02:00 +1°C° 0 mm 0 m/s 712 mmHg 94%
    03:00 +1°C° 0 mm 0 m/s 712 mmHg 94%
    04:00 +1°C° 0 mm 0 m/s 712 mmHg 93%
    05:00 +1°C° 0 mm 0 m/s 712 mmHg 93%
    06:00 +1°C° 0 mm 0 m/s 712 mmHg 92%
    07:00 +1°C° 0 mm 0 m/s 712 mmHg 92%
    08:00 +3°C° 0 mm 1 m/s 712 mmHg 87%
    09:00 +5°C° 0 mm 1 m/s 712 mmHg 81%
    10:00 +7°C° 0 mm 1 m/s 712 mmHg 76%
    11:00 +8°C° 0 mm 2 m/s 711 mmHg 70%
    12:00 +10°C° 0 mm 3 m/s 711 mmHg 63%
    13:00 +12°C° 0 mm 3 m/s 710 mmHg 57%
    14:00 +11°C° 0 mm 3 m/s 710 mmHg 60%
    15:00 +11°C° 0 mm 4 m/s 710 mmHg 63%
    16:00 +11°C° 0 mm 4 m/s 709 mmHg 65%
    17:00 +9°C° 0 mm 3 m/s 709 mmHg 74%
    18:00 +7°C° 0 mm 3 m/s 710 mmHg 83%
    19:00 +5°C° 0 mm 2 m/s 710 mmHg 92%
    20:00 +5°C° 0 mm 2 m/s 710 mmHg 92%
    21:00 +4°C° 0 mm 2 m/s 710 mmHg 93%
    22:00 +4°C° 0 mm 2 m/s 710 mmHg 94%
    23:00 +4°C° 0 mm 2 m/s 709 mmHg 94%

    21 Julho, Domingo

    Tempo Temperatura Precipitação Vento Pressão Humidade
    00:00 +3°C° 0 mm 2 m/s 709 mmHg 94%
    01:00 +3°C° 0 mm 2 m/s 708 mmHg 94%
    02:00 +3°C° 0 mm 2 m/s 708 mmHg 94%
    03:00 +3°C° 0 mm 2 m/s 708 mmHg 94%
    04:00 +3°C° 0 mm 2 m/s 708 mmHg 94%
    05:00 +3°C° 0 mm 2 m/s 707 mmHg 94%
    06:00 +3°C° 0 mm 2 m/s 707 mmHg 94%
    07:00 +3°C° 0 mm 2 m/s 707 mmHg 94%
    08:00 +4°C° 0 mm 3 m/s 707 mmHg 84%
    09:00 +6°C° 0 mm 4 m/s 708 mmHg 75%
    10:00 +8°C° 0 mm 5 m/s 708 mmHg 65%
    11:00 +10°C° 0 mm 6 m/s 707 mmHg 61%
    12:00 +11°C° 0 mm 6 m/s 707 mmHg 57%
    13:00 +13°C° 0 mm 6 m/s 706 mmHg 52%
    14:00 +13°C° 0 mm 6 m/s 706 mmHg 56%
    15:00 +11°C° 0 mm 6 m/s 706 mmHg 59%
    16:00 +10°C° 0 mm 5 m/s 706 mmHg 63%
    17:00 +10°C° 0 mm 4 m/s 706 mmHg 71%
    18:00 +8°C° 0 mm 3 m/s 707 mmHg 79%
    19:00 +6°C° 0 mm 2 m/s 707 mmHg 87%
    20:00 +6°C° 0.1 mm 2 m/s 708 mmHg 88%
    21:00 +5°C° 0.1 mm 3 m/s 708 mmHg 90%
    22:00 +5°C° 0.1 mm 3 m/s 709 mmHg 91%
    23:00 +5°C° 0 mm 3 m/s 709 mmHg 91%

    22 Julho, Segunda-feira

    Tempo Temperatura Precipitação Vento Pressão Humidade
    00:00 +5°C° 0 mm 2 m/s 709 mmHg 91%
    01:00 +5°C° 0 mm 2 m/s 709 mmHg 92%
    02:00 +5°C° 0 mm 1 m/s 709 mmHg 93%
    03:00 +4°C° 0 mm 1 m/s 709 mmHg 94%
    04:00 +3°C° 0 mm 0 m/s 708 mmHg 95%
    05:00 +2°C° 0 mm 0 m/s 709 mmHg 95%
    06:00 +2°C° 0 mm 0 m/s 709 mmHg 94%
    07:00 +1°C° 0 mm 0 m/s 710 mmHg 94%
    08:00 +4°C° 0 mm 0 m/s 710 mmHg 86%
    09:00 +7°C° 0 mm 1 m/s 710 mmHg 78%
    10:00 +9°C° 0 mm 1 m/s 710 mmHg 70%
    11:00 +10°C° 0 mm 2 m/s 710 mmHg 61%
    12:00 +12°C° 0 mm 2 m/s 709 mmHg 53%
    13:00 +13°C° 0 mm 3 m/s 709 mmHg 44%
    14:00 +12°C° 0 mm 3 m/s 709 mmHg 46%
    15:00 +12°C° 0 mm 3 m/s 709 mmHg 49%
    16:00 +11°C° 0 mm 3 m/s 709 mmHg 51%
    17:00 +9°C° 0 mm 3 m/s 709 mmHg 59%
    18:00 +7°C° 0 mm 2 m/s 709 mmHg 68%
    19:00 +6°C° 0 mm 1 m/s 709 mmHg 76%
    20:00 +6°C° 0 mm 1 m/s 709 mmHg 78%
    21:00 +5°C° 0 mm 1 m/s 709 mmHg 80%
    22:00 +5°C° 0 mm 1 m/s 709 mmHg 83%
    23:00 +5°C° 0 mm 1 m/s 709 mmHg 85%

    23 Julho, Terça-feira

    Tempo Temperatura Precipitação Vento Pressão Humidade
    00:00 +4°C° 0 mm 1 m/s 708 mmHg 87%
    01:00 +4°C° 0 mm 1 m/s 708 mmHg 89%
    02:00 +4°C° 0 mm 1 m/s 708 mmHg 90%
    03:00 +4°C° 0 mm 1 m/s 708 mmHg 91%
    04:00 +4°C° 0 mm 1 m/s 707 mmHg 92%
    05:00 +4°C° 0 mm 1 m/s 708 mmHg 93%
    06:00 +3°C° 0 mm 2 m/s 708 mmHg 93%
    07:00 +2°C° 0 mm 2 m/s 708 mmHg 94%
    08:00 +4°C° 0 mm 3 m/s 708 mmHg 83%
    09:00 +6°C° 0 mm 4 m/s 709 mmHg 73%
    10:00 +8°C° 0 mm 5 m/s 709 mmHg 62%
    11:00 +9°C° 0 mm 5 m/s 708 mmHg 58%
    12:00 +11°C° 0 mm 6 m/s 708 mmHg 53%
    13:00 +12°C° 0 mm 7 m/s 707 mmHg 48%
    14:00 +11°C° 0 mm 7 m/s 707 mmHg 51%
    15:00 +11°C° 0 mm 7 m/s 707 mmHg 54%
    16:00 +10°C° 0 mm 7 m/s 707 mmHg 57%
    17:00 +9°C° 0 mm 7 m/s 707 mmHg 59%
    18:00 +8°C° 0 mm 6 m/s 707 mmHg 62%
    19:00 +7°C° 0 mm 6 m/s 707 mmHg 65%
    20:00 +7°C° 0.1 mm 6 m/s 708 mmHg 72%
    21:00 +5°C° 0.1 mm 6 m/s 708 mmHg 79%
    22:00 +5°C° 0.1 mm 6 m/s 708 mmHg 86%
    23:00 +4°C° 0 mm 6 m/s 708 mmHg 85%
    Mostrar mais